Time,TemperatureF,DewpointF,PressureIn,WindDirection,WindDirectionDegrees,WindSpeedMPH,WindSpeedGustMPH,Humidity,HourlyPrecipIn,Conditions,Clouds,dailyrainin,SoftwareType,DateUTC
2013-08-03 00:01:00,60.0,56.0,29.96,SW,225,0.0,0.0,86,0.00,,,0.00,,2013-08-03 07:01:00,
2013-08-03 00:12:00,60.0,56.0,29.96,SW,225,0.0,0.0,86,0.00,,,0.00,,2013-08-03 07:12:00,
2013-08-03 00:22:00,60.0,56.0,29.97,SW,225,3.0,3.0,87,0.00,,,0.00,,2013-08-03 07:22:00,
2013-08-03 00:32:00,60.0,56.0,29.97,SW,225,3.0,3.0,87,0.00,,,0.00,,2013-08-03 07:32:00,
2013-08-03 00:43:00,60.0,56.0,29.97,SW,225,3.0,3.0,87,0.00,,,0.00,,2013-08-03 07:43:00,
2013-08-03 00:53:00,60.0,56.0,29.97,SW,225,3.0,3.0,87,0.00,,,0.00,,2013-08-03 07:53:00,
2013-08-03 01:02:00,60.0,56.0,29.97,SW,225,3.0,3.0,87,0.00,,,0.00,,2013-08-03 08:02:00,
2013-08-03 02:53:00,60.0,56.0,29.96,SW,224,0.0,0.0,86,0.00,,,0.00,,2013-08-03 09:53:00,
2013-08-03 03:02:00,60.0,56.0,29.96,SW,224,0.0,0.0,86,0.00,,,0.00,,2013-08-03 10:02:00,
2013-08-03 03:12:00,60.0,56.0,29.96,SW,224,0.0,0.0,86,0.00,,,0.00,,2013-08-03 10:12:00,
2013-08-03 03:22:00,61.0,57.0,29.96,SW,225,0.0,0.0,86,0.00,,,0.00,,2013-08-03 10:22:00,
2013-08-03 03:32:00,61.0,57.0,29.96,SW,225,0.0,0.0,86,0.00,,,0.00,,2013-08-03 10:32:00,
2013-08-03 03:42:00,61.0,57.0,29.96,SW,225,0.0,0.0,86,0.00,,,0.00,,2013-08-03 10:42:00,
2013-08-03 03:53:00,61.0,57.0,29.96,SW,225,0.0,0.0,86,0.00,,,0.00,,2013-08-03 10:53:00,
2013-08-03 04:01:00,61.0,57.0,29.96,SW,225,0.0,0.0,86,0.00,,,0.00,,2013-08-03 11:01:00,
2013-08-03 04:32:00,61.0,56.0,29.96,SW,225,0.0,0.0,85,0.00,,,0.00,,2013-08-03 11:32:00,
2013-08-03 04:43:00,61.0,56.0,29.96,SW,225,0.0,0.0,85,0.00,,,0.00,,2013-08-03 11:43:00,
2013-08-03 04:53:00,61.0,56.0,29.96,SW,225,0.0,0.0,85,0.00,,,0.00,,2013-08-03 11:53:00,
2013-08-03 05:01:00,61.0,56.0,29.96,SW,225,0.0,0.0,85,0.00,,,0.00,,2013-08-03 12:01:00,
2013-08-03 05:22:00,61.0,56.0,29.96,SW,225,2.0,2.0,85,0.00,,,0.00,,2013-08-03 12:22:00,
2013-08-03 05:33:00,61.0,56.0,29.96,SW,225,2.0,2.0,85,0.00,,,0.00,,2013-08-03 12:33:00,
2013-08-03 05:43:00,61.0,56.0,29.96,SW,225,2.0,2.0,85,0.00,,,0.00,,2013-08-03 12:43:00,
2013-08-03 05:52:00,61.0,56.0,29.96,SW,225,2.0,2.0,85,0.00,,,0.00,,2013-08-03 12:52:00,
2013-08-03 06:01:00,61.0,56.0,29.96,SW,225,2.0,2.0,85,0.00,,,0.00,,2013-08-03 13:01:00,
2013-08-03 06:33:00,61.0,56.0,29.96,SW,227,0.0,0.0,85,0.00,,,0.00,,2013-08-03 13:33:00,
2013-08-03 06:43:00,61.0,56.0,29.96,SW,227,0.0,0.0,85,0.00,,,0.00,,2013-08-03 13:43:00,
2013-08-03 06:52:00,61.0,56.0,29.96,SW,227,0.0,0.0,85,0.00,,,0.00,,2013-08-03 13:52:00,
2013-08-03 07:52:00,62.0,57.0,29.99,SW,228,2.0,2.0,85,0.00,,,0.00,,2013-08-03 14:52:00,
2013-08-03 08:02:00,62.0,57.0,29.99,SW,228,2.0,2.0,85,0.00,,,0.00,,2013-08-03 15:02:00,
2013-08-03 08:12:00,62.0,57.0,29.99,SW,228,2.0,2.0,85,0.00,,,0.00,,2013-08-03 15:12:00,
2013-08-03 08:22:00,62.0,57.0,29.99,SW,228,2.0,2.0,85,0.00,,,0.00,,2013-08-03 15:22:00,
2013-08-03 08:32:00,62.0,57.0,29.99,SW,228,2.0,2.0,85,0.00,,,0.00,,2013-08-03 15:32:00,
2013-08-03 08:33:00,62.0,57.0,30.00,SW,229,0.0,0.0,83,0.00,,,0.00,,2013-08-03 15:33:00,
2013-08-03 08:53:00,62.0,57.0,30.00,SW,229,0.0,0.0,83,0.00,,,0.00,,2013-08-03 15:53:00,
2013-08-03 09:02:00,62.0,57.0,30.00,SW,229,0.0,0.0,83,0.00,,,0.00,,2013-08-03 16:02:00,
2013-08-03 09:12:00,62.0,57.0,30.00,SW,229,0.0,0.0,83,0.00,,,0.00,,2013-08-03 16:12:00,
2013-08-03 09:22:00,62.0,57.0,30.00,SW,229,0.0,0.0,83,0.00,,,0.00,,2013-08-03 16:22:00,
2013-08-03 09:53:00,63.0,57.0,30.00,SW,229,0.0,0.0,80,0.00,,,0.00,,2013-08-03 16:53:00,
2013-08-03 10:02:00,63.0,57.0,30.00,SW,229,0.0,0.0,80,0.00,,,0.00,,2013-08-03 17:02:00,
2013-08-03 10:12:00,63.0,57.0,30.00,SW,229,0.0,0.0,80,0.00,,,0.00,,2013-08-03 17:12:00,
2013-08-03 10:22:00,63.0,57.0,30.00,SW,229,0.0,0.0,80,0.00,,,0.00,,2013-08-03 17:22:00,
2013-08-03 10:32:00,63.0,57.0,30.00,SW,229,0.0,0.0,80,0.00,,,0.00,,2013-08-03 17:32:00,
2013-08-03 10:52:00,65.0,58.0,30.00,WSW,254,0.0,0.0,79,0.00,,,0.00,,2013-08-03 17:52:00,
2013-08-03 11:02:00,65.0,58.0,30.00,WSW,254,0.0,0.0,79,0.00,,,0.00,,2013-08-03 18:02:00,
2013-08-03 11:12:00,65.0,58.0,30.00,WSW,254,0.0,0.0,79,0.00,,,0.00,,2013-08-03 18:12:00,
2013-08-03 11:32:00,66.0,59.0,30.00,West,277,0.0,0.0,79,0.00,,,0.00,,2013-08-03 18:32:00,
2013-08-03 11:43:00,66.0,59.0,30.00,West,277,0.0,0.0,79,0.00,,,0.00,,2013-08-03 18:43:00,
2013-08-03 11:53:00,66.0,59.0,30.00,West,277,0.0,0.0,79,0.00,,,0.00,,2013-08-03 18:53:00,
2013-08-03 12:01:00,68.0,59.0,30.00,NW,305,5.0,5.0,72,0.00,,,0.00,,2013-08-03 19:01:00,
2013-08-03 12:12:00,68.0,59.0,30.00,NW,305,5.0,5.0,72,0.00,,,0.00,,2013-08-03 19:12:00,
2013-08-03 12:22:00,68.0,59.0,30.00,NW,305,5.0,5.0,72,0.00,,,0.00,,2013-08-03 19:22:00,
2013-08-03 12:32:00,68.0,59.0,30.00,NW,305,5.0,5.0,72,0.00,,,0.00,,2013-08-03 19:32:00,
2013-08-03 12:53:00,69.0,59.0,30.00,West,275,3.0,3.0,70,0.00,,,0.00,,2013-08-03 19:53:00,
2013-08-03 13:02:00,69.0,59.0,30.00,West,275,3.0,3.0,70,0.00,,,0.00,,2013-08-03 20:02:00,
2013-08-03 13:12:00,69.0,59.0,30.00,West,275,3.0,3.0,70,0.00,,,0.00,,2013-08-03 20:12:00,
2013-08-03 13:21:00,69.0,59.0,30.00,West,275,3.0,3.0,70,0.00,,,0.00,,2013-08-03 20:21:00,
2013-08-03 13:32:00,69.0,59.0,30.00,West,275,3.0,3.0,70,0.00,,,0.00,,2013-08-03 20:32:00,
2013-08-03 14:22:00,71.0,58.0,29.99,WSW,241,9.0,9.0,64,0.00,,,0.00,,2013-08-03 21:22:00,
2013-08-03 14:32:00,71.0,58.0,29.99,WSW,241,9.0,9.0,64,0.00,,,0.00,,2013-08-03 21:32:00,
2013-08-03 14:42:00,71.0,58.0,29.99,WSW,241,9.0,9.0,64,0.00,,,0.00,,2013-08-03 21:42:00,
2013-08-03 14:52:00,71.0,59.0,29.98,SW,231,9.0,9.0,65,0.00,,,0.00,,2013-08-03 21:52:00,
2013-08-03 15:01:00,71.0,59.0,29.98,SW,231,9.0,9.0,65,0.00,,,0.00,,2013-08-03 22:01:00,
2013-08-03 15:12:00,71.0,59.0,29.98,SW,231,9.0,9.0,65,0.00,,,0.00,,2013-08-03 22:12:00,
2013-08-03 15:22:00,70.0,57.0,29.97,WSW,241,10.0,10.0,64,0.00,,,0.00,,2013-08-03 22:22:00,
2013-08-03 15:32:00,70.0,57.0,29.97,WSW,241,10.0,10.0,64,0.00,,,0.00,,2013-08-03 22:32:00,
2013-08-03 15:43:00,70.0,57.0,29.97,WSW,241,10.0,10.0,64,0.00,,,0.00,,2013-08-03 22:43:00,
2013-08-03 15:52:00,70.0,58.0,29.96,WSW,252,3.0,3.0,65,0.00,,,0.00,,2013-08-03 22:52:00,
2013-08-03 16:01:00,70.0,58.0,29.96,WSW,252,3.0,3.0,65,0.00,,,0.00,,2013-08-03 23:01:00,
2013-08-03 16:12:00,70.0,58.0,29.96,WSW,252,3.0,3.0,65,0.00,,,0.00,,2013-08-03 23:12:00,
2013-08-03 16:22:00,69.0,57.0,29.96,WSW,244,9.0,9.0,66,0.00,,,0.00,,2013-08-03 23:22:00,
2013-08-03 16:32:00,69.0,57.0,29.96,WSW,244,9.0,9.0,66,0.00,,,0.00,,2013-08-03 23:32:00,
2013-08-03 16:43:00,69.0,57.0,29.96,WSW,244,9.0,9.0,66,0.00,,,0.00,,2013-08-03 23:43:00,
2013-08-03 16:52:00,69.0,57.0,29.95,WNW,294,9.0,9.0,65,0.00,,,0.00,,2013-08-03 23:52:00,
2013-08-03 17:01:00,69.0,57.0,29.95,WNW,294,9.0,9.0,65,0.00,,,0.00,,2013-08-04 00:01:00,
2013-08-03 17:12:00,69.0,57.0,29.95,WNW,294,9.0,9.0,65,0.00,,,0.00,,2013-08-04 00:12:00,
2013-08-03 17:22:00,68.0,57.0,29.94,SW,236,1.0,1.0,68,0.00,,,0.00,,2013-08-04 00:22:00,
2013-08-03 17:32:00,68.0,57.0,29.94,SW,236,1.0,1.0,68,0.00,,,0.00,,2013-08-04 00:32:00,
2013-08-03 17:42:00,68.0,57.0,29.94,SW,236,1.0,1.0,68,0.00,,,0.00,,2013-08-04 00:42:00,
2013-08-03 17:52:00,68.0,57.0,29.94,SW,236,1.0,1.0,68,0.00,,,0.00,,2013-08-04 00:52:00,
2013-08-03 18:01:00,68.0,57.0,29.94,SW,236,1.0,1.0,68,0.00,,,0.00,,2013-08-04 01:01:00,
2013-08-03 18:42:00,67.0,56.0,29.94,West,276,11.0,11.0,69,0.00,,,0.00,,2013-08-04 01:42:00,
2013-08-03 18:53:00,67.0,56.0,29.94,West,276,11.0,11.0,69,0.00,,,0.00,,2013-08-04 01:53:00,
2013-08-03 19:02:00,67.0,56.0,29.94,West,276,11.0,11.0,69,0.00,,,0.00,,2013-08-04 02:02:00,
2013-08-03 19:12:00,67.0,56.0,29.94,West,276,11.0,11.0,69,0.00,,,0.00,,2013-08-04 02:12:00,
2013-08-03 19:22:00,67.0,56.0,29.94,West,276,11.0,11.0,69,0.00,,,0.00,,2013-08-04 02:22:00,
2013-08-03 20:52:00,62.0,56.0,29.95,WNW,301,4.0,4.0,82,0.00,,,0.00,,2013-08-04 03:52:00,
2013-08-03 21:02:00,62.0,56.0,29.95,WNW,301,4.0,4.0,82,0.00,,,0.00,,2013-08-04 04:02:00,
2013-08-03 21:11:00,62.0,56.0,29.95,WNW,301,4.0,4.0,82,0.00,,,0.00,,2013-08-04 04:11:00,
2013-08-03 21:22:00,62.0,56.0,29.95,WNW,301,4.0,4.0,82,0.00,,,0.00,,2013-08-04 04:22:00,
2013-08-03 21:31:00,62.0,56.0,29.95,WNW,301,4.0,4.0,82,0.00,,,0.00,,2013-08-04 04:31:00,
2013-08-03 21:52:00,61.0,56.0,29.96,West,261,3.0,3.0,84,0.00,,,0.00,,2013-08-04 04:52:00,
2013-08-03 22:02:00,61.0,56.0,29.96,West,261,3.0,3.0,84,0.00,,,0.00,,2013-08-04 05:02:00,
2013-08-03 22:12:00,61.0,56.0,29.96,West,261,3.0,3.0,84,0.00,,,0.00,,2013-08-04 05:12:00,
2013-08-03 22:21:00,61.0,56.0,29.96,West,261,3.0,3.0,84,0.00,,,0.00,,2013-08-04 05:21:00,
2013-08-03 22:32:00,61.0,56.0,29.96,West,261,3.0,3.0,84,0.00,,,0.00,,2013-08-04 05:32:00,